Flag for Jamaica Weather past 2 weeks in May Pen, Jamaica

Now
84 °F

Passing clouds.


Feels Like: 90 °F
Forecast: 78 / 93 °F
Wind: 17 mph from Southeast

Location: Kingston / Norman Manley

Current Time: Jul 1, 2015 at 11:48:16 PM

Latest Report: Jul 1, 2015 at 11:00 PM


Visibility: N/A

Pressure: 30.01 "Hg

Humidity: 66%

Dew point: 72 °F

Location of May PenLocation

Historic Weather in May Pen — Graph

°F

May Pen temperature yesterday

Maximum temperature yesterday: 90 °F (at 1:00 PM)
Minimum temperature yesterday: 81 °F (at 7:00 AM)
Average temperature yesterday: 85 °F

Past Weeks' High & Low Weather Summary

 TemperatureHumidityPressure
High95 °F (Jun 20, 1:00 PM)79% (Jun 18, 5:00 AM)30.07 "Hg (Jun 18, 5:00 AM)
Low81 °F (Jun 17, 2:00 AM)44% (Jun 20, 1:00 PM)29.89 "Hg (Jun 17, 4:00 PM)
Average86 °F66%29.98 "Hg
* Reported Jun 16 10:00 PM — Jul 1 10:00 PM, May Pen, Weather by CustomWeather, © 2015

Note: Actual official high and low records may vary slightly from our data, if they occured in-between our weather recording intervals... More about our weather records

Advertising

May Pen weather history for previous 24 hours

 ConditionsComfort  
Time TempWeatherWind HumidityBarometerVisibility
10:00 PM
Wed, Jul 1
84 °FPassing clouds.6 mph70%30.01 "HgN/A
9:00 PM86 °FPassing clouds.15 mph62%29.98 "HgN/A
8:00 PM86 °FPassing clouds.15 mph62%29.98 "HgN/A
7:00 PM86 °FPassing clouds.25 mph66%29.95 "HgN/A
6:00 PM86 °FPassing clouds.26 mph66%29.92 "HgN/A
5:00 PM88 °FPassing clouds.29 mph62%29.92 "HgN/A
4:00 PM88 °FPassing clouds.30 mph66%29.89 "HgN/A
3:00 PM88 °FPassing clouds.30 mph66%29.92 "HgN/A
2:00 PM88 °FPassing clouds.28 mph70%29.92 "HgN/A
1:00 PM90 °FPassing clouds.24 mph67%29.95 "HgN/A
12:00 PM90 °FPassing clouds.25 mph67%29.98 "HgN/A
11:00 AM90 °FPassing clouds.23 mph63%30.01 "HgN/A
10:00 AM90 °FPassing clouds.21 mph55%30.01 "HgN/A
9:00 AM88 °FPassing clouds.20 mph62%30.01 "HgN/A
8:00 AM86 °FPassing clouds.21 mph62%30.01 "HgN/A
7:00 AM84 °FScattered clouds.8 mph70%30.01 "HgN/A
6:00 AM82 °FThunderstorms. Cloudy.6 mph66%30.01 "HgN/A
5:00 AM84 °FPassing clouds.23 mph66%29.98 "HgN/A
4:00 AM82 °FPassing clouds.16 mph70%29.98 "HgN/A
3:00 AM81 °FPassing clouds.3 mph74%29.98 "HgN/A
2:00 AM82 °FPassing clouds.12 mph74%30.01 "HgN/A
1:00 AM84 °FThundershowers. Passing clouds.15 mph70%30.01 "HgN/A
12:00 AM84 °FPassing clouds.7 mph70%30.01 "HgN/A
11:00 PM
Tue, Jun 30
86 °FPassing clouds.6 mph59%30.04 "HgN/A
Weather by CustomWeather, © 2015

See weather overviewHow to use our weather pages